Location: Biltmore Gardens
(41.6070°N, 83.4666°W)
Time: 04:48:28
(UTC+00:00)

A-11 Canister half - Pass Details

Date: 20 April 2021
Orbit: 1526 x 1683 km, 47.3° (Epoch: 11 May)

Event Time Altitude Azimuth Distance (km) Brightness Sun altitude
Rises 01:46:31 0° 293° (WNW) 4,935 13.4 -15.7°
Reaches altitude 10° 01:49:41 10° 294° (WNW) 3,949 12.5 -16.2°
Maximum altitude 01:59:56 85° 24° (NNE) 1,685 9.1 -17.8°
Enters shadow 02:06:42 25° 112° (ESE) 2,906 9.9 -18.8°
